Time,TemperatureF,DewpointF,PressureIn,WindDirection,WindDirectionDegrees,WindSpeedMPH,WindSpeedGustMPH,Humidity,HourlyPrecipIn,Conditions,Clouds,dailyrainin,SoftwareType,DateUTC
2013-03-18 00:03:00,26.0,19.0,-100.00,West,269,5.0,6.0,73,0.00,,,-99.99,,2013-03-18 04:03:00,
2013-03-18 00:13:00,27.0,21.0,-100.00,West,268,4.0,6.0,73,0.00,,,-99.99,,2013-03-18 04:13:00,
2013-03-18 00:23:00,24.0,18.0,-100.00,WNW,302,5.0,6.0,73,0.00,,,-99.99,,2013-03-18 04:23:00,
2013-03-18 00:33:00,26.0,18.0,-100.00,NW,317,4.0,6.0,71,0.00,,,-99.99,,2013-03-18 04:33:00,
2013-03-18 00:42:00,24.0,18.0,-100.00,WNW,285,6.0,8.0,72,0.00,,,-99.99,,2013-03-18 04:42:00,
2013-03-18 00:52:00,26.0,19.0,-100.00,WNW,292,4.0,8.0,73,0.00,,,-99.99,,2013-03-18 04:52:00,
2013-03-18 01:03:00,26.0,19.0,-100.00,WNW,286,4.0,8.0,73,0.00,,,-99.99,,2013-03-18 05:03:00,
2013-03-18 01:12:00,24.0,19.0,-100.00,WNW,282,4.0,8.0,75,0.00,,,-99.99,,2013-03-18 05:12:00,
2013-03-18 01:22:00,25.0,18.0,-100.00,NW,306,4.0,8.0,73,0.00,,,-99.99,,2013-03-18 05:22:00,
2013-03-18 01:32:00,25.0,18.0,-100.00,NW,304,5.0,8.0,72,0.00,,,-99.99,,2013-03-18 05:32:00,
2013-03-18 01:43:00,23.0,16.0,-100.00,WNW,286,5.0,8.0,72,0.00,,,-99.99,,2013-03-18 05:43:00,
2013-03-18 01:52:00,24.0,18.0,-100.00,WNW,285,6.0,8.0,71,0.00,,,-99.99,,2013-03-18 05:52:00,
2013-03-18 02:02:00,25.0,18.0,-100.00,WNW,300,5.0,8.0,73,0.00,,,-99.99,,2013-03-18 06:02:00,
2013-03-18 02:12:00,24.0,18.0,-100.00,NW,309,4.0,8.0,72,0.00,,,-99.99,,2013-03-18 06:12:00,
2013-03-18 02:22:00,24.0,18.0,-100.00,WNW,293,4.0,8.0,72,0.00,,,-99.99,,2013-03-18 06:22:00,
2013-03-18 02:32:00,24.0,18.0,-100.00,WNW,286,4.0,8.0,72,0.00,,,-99.99,,2013-03-18 06:32:00,
2013-03-18 02:42:00,24.0,18.0,-100.00,West,271,4.0,8.0,72,0.00,,,-99.99,,2013-03-18 06:42:00,
2013-03-18 02:52:00,25.0,18.0,-100.00,West,261,4.0,8.0,73,0.00,,,-99.99,,2013-03-18 06:52:00,
2013-03-18 03:02:00,24.0,18.0,-100.00,West,280,4.0,8.0,73,0.00,,,-99.99,,2013-03-18 07:02:00,
2013-03-18 03:12:00,23.0,16.0,-100.00,West,269,3.0,8.0,73,0.00,,,-99.99,,2013-03-18 07:12:00,
2013-03-18 03:23:00,25.0,18.0,-100.00,NW,312,2.0,8.0,72,0.00,,,-99.99,,2013-03-18 07:23:00,
2013-03-18 03:33:00,25.0,18.0,-100.00,WNW,293,4.0,8.0,69,0.00,,,-99.99,,2013-03-18 07:33:00,
2013-03-18 03:42:00,25.0,18.0,-100.00,WNW,303,2.0,8.0,71,0.00,,,-99.99,,2013-03-18 07:42:00,
2013-03-18 03:52:00,25.0,18.0,-100.00,NNW,338,1.0,8.0,69,0.00,,,-99.99,,2013-03-18 07:52:00,
2013-03-18 04:02:00,27.0,19.0,-100.00,NNW,341,2.0,8.0,72,0.00,,,-99.99,,2013-03-18 08:02:00,
2013-03-18 04:12:00,25.0,18.0,-100.00,NNE,15,1.0,8.0,71,0.00,,,-99.99,,2013-03-18 08:12:00,
2013-03-18 04:22:00,25.0,18.0,-100.00,North,352,1.0,8.0,71,0.00,,,-99.99,,2013-03-18 08:22:00,
2013-03-18 04:32:00,24.0,16.0,-100.00,NW,310,1.0,8.0,69,0.00,,,-99.99,,2013-03-18 08:32:00,
2013-03-18 04:43:00,24.0,16.0,-100.00,NNW,345,2.0,8.0,69,0.00,,,-99.99,,2013-03-18 08:43:00,
2013-03-18 04:52:00,26.0,18.0,-100.00,NW,320,2.0,8.0,69,0.00,,,-99.99,,2013-03-18 08:52:00,
2013-03-18 05:02:00,28.0,19.0,-100.00,NNW,347,2.0,8.0,69,0.00,,,-99.99,,2013-03-18 09:02:00,
2013-03-18 05:12:00,26.0,18.0,-100.00,NNW,333,4.0,8.0,66,0.00,,,-99.99,,2013-03-18 09:12:00,
2013-03-18 05:22:00,27.0,18.0,-100.00,NW,323,6.0,8.0,64,0.00,,,-99.99,,2013-03-18 09:22:00,
2013-03-18 05:33:00,29.0,19.0,-100.00,North,351,7.0,8.0,64,0.00,,,-99.99,,2013-03-18 09:33:00,
2013-03-18 05:43:00,29.0,19.0,-100.00,North,350,6.0,8.0,64,0.00,,,-99.99,,2013-03-18 09:43:00,
2013-03-18 05:53:00,28.0,18.0,-100.00,North,7,7.0,8.0,64,0.00,,,-99.99,,2013-03-18 09:53:00,
2013-03-18 06:03:00,30.0,19.0,-100.00,North,357,7.0,8.0,63,0.00,,,-99.99,,2013-03-18 10:03:00,
2013-03-18 06:13:00,29.0,19.0,-100.00,NNW,331,8.0,12.0,64,0.00,,,-99.99,,2013-03-18 10:13:00,
2013-03-18 06:23:00,29.0,19.0,-100.00,North,355,7.0,12.0,64,0.00,,,-99.99,,2013-03-18 10:23:00,
2013-03-18 06:33:00,30.0,21.0,-100.00,NW,316,10.0,14.0,67,0.00,,,-99.99,,2013-03-18 10:33:00,
2013-03-18 06:42:00,29.0,21.0,-100.00,NNW,328,9.0,14.0,66,0.00,,,-99.99,,2013-03-18 10:42:00,
2013-03-18 06:53:00,30.0,21.0,-100.00,North,355,9.0,14.0,66,0.00,,,-99.99,,2013-03-18 10:53:00,
2013-03-18 07:03:00,29.0,19.0,-100.00,NW,326,9.0,14.0,66,0.00,,,-99.99,,2013-03-18 11:03:00,
2013-03-18 07:13:00,27.0,18.0,-100.00,NNW,327,11.0,14.0,66,0.00,,,-99.99,,2013-03-18 11:13:00,
2013-03-18 07:22:00,32.0,23.0,-100.00,NNW,347,9.0,14.0,66,0.00,,,-99.99,,2013-03-18 11:22:00,
2013-03-18 07:32:00,30.0,21.0,-100.00,NNW,345,8.0,14.0,67,0.00,,,-99.99,,2013-03-18 11:32:00,
2013-03-18 07:42:00,31.0,23.0,-100.00,NNE,18,9.0,14.0,68,0.00,,,-99.99,,2013-03-18 11:42:00,
2013-03-18 07:52:00,33.0,25.0,-100.00,North,355,8.0,14.0,68,0.00,,,-99.99,,2013-03-18 11:52:00,
2013-03-18 08:03:00,27.0,19.0,-100.00,NW,313,9.0,14.0,68,0.00,,,-99.99,,2013-03-18 12:03:00,
2013-03-18 08:13:00,30.0,21.0,-100.00,NW,310,9.0,14.0,68,0.00,,,-99.99,,2013-03-18 12:13:00,
2013-03-18 08:22:00,30.0,21.0,-100.00,NNW,340,11.0,14.0,67,0.00,,,-99.99,,2013-03-18 12:22:00,
2013-03-18 08:32:00,31.0,23.0,-100.00,North,358,11.0,14.0,68,0.00,,,-99.99,,2013-03-18 12:32:00,
2013-03-18 08:43:00,30.0,21.0,-100.00,NNE,25,12.0,14.0,67,0.00,,,-99.99,,2013-03-18 12:43:00,
2013-03-18 08:52:00,30.0,21.0,-100.00,NNE,22,10.0,14.0,68,0.00,,,-99.99,,2013-03-18 12:52:00,
2013-03-18 09:03:00,30.0,21.0,-100.00,East,93,9.0,14.0,68,0.00,,,-99.99,,2013-03-18 13:03:00,
2013-03-18 09:12:00,32.0,23.0,-100.00,NNW,347,9.0,14.0,68,0.00,,,-99.99,,2013-03-18 13:12:00,
2013-03-18 09:22:00,33.0,25.0,-100.00,NNW,348,9.0,14.0,67,0.00,,,-99.99,,2013-03-18 13:22:00,
2013-03-18 09:33:00,32.0,25.0,-100.00,NNW,340,8.0,14.0,69,0.00,,,-99.99,,2013-03-18 13:33:00,
2013-03-18 09:42:00,31.0,23.0,-100.00,North,0,11.0,14.0,69,0.00,,,-99.99,,2013-03-18 13:42:00,
2013-03-18 09:52:00,31.0,25.0,-100.00,NNW,341,10.0,14.0,75,0.00,,,-99.99,,2013-03-18 13:52:00,
2013-03-18 10:02:00,31.0,25.0,-100.00,NNW,345,12.0,14.0,77,1.14,,,-99.99,,2013-03-18 14:02:00,
2013-03-18 10:12:00,30.0,25.0,-100.00,NNW,333,12.0,14.0,80,4.53,,,-99.99,,2013-03-18 14:12:00,
2013-03-18 10:22:00,31.0,28.0,-100.00,North,358,13.0,19.0,82,2.83,,,-99.99,,2013-03-18 14:22:00,
2013-03-18 10:32:00,31.0,28.0,-100.00,North,0,11.0,19.0,85,2.83,,,-99.99,,2013-03-18 14:32:00,
2013-03-18 10:42:00,31.0,30.0,-100.00,NNW,345,9.0,19.0,89,9.06,,,-99.99,,2013-03-18 14:42:00,
2013-03-18 10:52:00,32.0,30.0,-100.00,North,358,7.0,19.0,88,6.22,,,-99.99,,2013-03-18 14:52:00,
2013-03-18 11:02:00,32.0,30.0,-100.00,NNW,341,9.0,19.0,89,23.23,,,-99.99,,2013-03-18 15:02:00,
2013-03-18 11:12:00,32.0,30.0,-100.00,North,358,9.0,19.0,89,2.83,,,-99.99,,2013-03-18 15:12:00,
2013-03-18 11:22:00,31.0,28.0,-100.00,NNE,28,12.0,19.0,90,2.83,,,-99.99,,2013-03-18 15:22:00,
2013-03-18 11:33:00,32.0,30.0,-100.00,North,1,9.0,19.0,91,1.14,,,-99.99,,2013-03-18 15:33:00,
2013-03-18 11:43:00,34.0,32.0,-100.00,NNW,340,11.0,19.0,91,1.14,,,-99.99,,2013-03-18 15:43:00,
2013-03-18 11:52:00,32.0,30.0,-100.00,NNE,16,9.0,19.0,91,6.22,,,-99.99,,2013-03-18 15:52:00,
2013-03-18 12:03:00,35.0,32.0,-100.00,NNW,330,11.0,19.0,90,6.22,,,-99.99,,2013-03-18 16:03:00,
2013-03-18 12:12:00,34.0,32.0,-100.00,NNW,327,11.0,19.0,91,1.14,,,-99.99,,2013-03-18 16:12:00,
2013-03-18 12:23:00,34.0,32.0,-100.00,NNW,336,11.0,19.0,90,0.00,,,-99.99,,2013-03-18 16:23:00,
2013-03-18 12:33:00,34.0,32.0,-100.00,NNW,345,9.0,19.0,90,1.14,,,-99.99,,2013-03-18 16:33:00,
2013-03-18 12:42:00,35.0,32.0,-100.00,NNW,330,8.0,19.0,90,0.00,,,-99.99,,2013-03-18 16:42:00,
2013-03-18 12:52:00,34.0,32.0,-100.00,North,360,8.0,19.0,90,1.14,,,-99.99,,2013-03-18 16:52:00,
2013-03-18 13:03:00,35.0,32.0,-100.00,NW,313,6.0,19.0,90,0.00,,,-99.99,,2013-03-18 17:03:00,
2013-03-18 13:12:00,35.0,32.0,-100.00,North,1,5.0,19.0,90,1.14,,,-99.99,,2013-03-18 17:12:00,
2013-03-18 13:22:00,33.0,32.0,-100.00,NNW,343,6.0,19.0,91,4.53,,,-99.99,,2013-03-18 17:22:00,
2013-03-18 13:32:00,33.0,30.0,-100.00,NNE,16,6.0,19.0,90,1.14,,,-99.99,,2013-03-18 17:32:00,
2013-03-18 13:42:00,35.0,32.0,-100.00,NNW,328,7.0,19.0,90,0.00,,,-99.99,,2013-03-18 17:42:00,
2013-03-18 13:52:00,33.0,32.0,-100.00,NNE,21,5.0,19.0,90,0.00,,,-99.99,,2013-03-18 17:52:00,
2013-03-18 14:02:00,33.0,30.0,-100.00,North,1,5.0,19.0,90,0.00,,,-99.99,,2013-03-18 18:02:00,
2013-03-18 14:12:00,34.0,32.0,-100.00,NNW,341,6.0,19.0,90,0.00,,,-99.99,,2013-03-18 18:12:00,
2013-03-18 14:22:00,33.0,32.0,-100.00,North,357,7.0,19.0,90,0.00,,,-99.99,,2013-03-18 18:22:00,
2013-03-18 14:32:00,34.0,32.0,-100.00,North,352,8.0,19.0,89,0.00,,,-99.99,,2013-03-18 18:32:00,
2013-03-18 14:42:00,36.0,32.0,-100.00,NNE,22,7.0,19.0,90,0.00,,,-99.99,,2013-03-18 18:42:00,
2013-03-18 14:52:00,33.0,30.0,-100.00,NNE,15,9.0,19.0,88,0.00,,,-99.99,,2013-03-18 18:52:00,
2013-03-18 15:02:00,33.0,32.0,-100.00,North,350,9.0,19.0,89,0.00,,,-99.99,,2013-03-18 19:02:00,
2013-03-18 15:12:00,33.0,32.0,-100.00,NNW,336,12.0,19.0,90,0.00,,,-99.99,,2013-03-18 19:12:00,
2013-03-18 15:22:00,33.0,32.0,-100.00,North,2,10.0,19.0,90,0.00,,,-99.99,,2013-03-18 19:22:00,
2013-03-18 15:33:00,35.0,32.0,-100.00,North,350,6.0,19.0,91,0.00,,,-99.99,,2013-03-18 19:33:00,
2013-03-18 15:42:00,35.0,32.0,-100.00,North,1,10.0,19.0,91,0.00,,,-99.99,,2013-03-18 19:42:00,
2013-03-18 15:52:00,35.0,32.0,-100.00,North,1,10.0,19.0,93,0.00,,,-99.99,,2013-03-18 19:52:00,
2013-03-18 16:03:00,36.0,32.0,-100.00,NNW,331,10.0,19.0,91,0.00,,,-99.99,,2013-03-18 20:03:00,
2013-03-18 16:12:00,36.0,32.0,-100.00,North,357,11.0,19.0,91,0.00,,,-99.99,,2013-03-18 20:12:00,
2013-03-18 16:23:00,35.0,32.0,-100.00,North,4,10.0,19.0,93,0.00,,,-99.99,,2013-03-18 20:23:00,
2013-03-18 16:33:00,35.0,32.0,-100.00,NNE,14,11.0,19.0,93,0.00,,,-99.99,,2013-03-18 20:33:00,
2013-03-18 16:42:00,36.0,34.0,-100.00,North,8,11.0,19.0,93,1.14,,,-99.99,,2013-03-18 20:42:00,
2013-03-18 16:52:00,36.0,34.0,-100.00,North,352,11.0,19.0,91,7.36,,,-99.99,,2013-03-18 20:52:00,
2013-03-18 17:02:00,35.0,32.0,-100.00,North,1,11.0,19.0,93,15.31,,,-99.99,,2013-03-18 21:02:00,
2013-03-18 17:12:00,36.0,34.0,-100.00,North,352,14.0,19.0,93,4.53,,,-99.99,,2013-03-18 21:12:00,
2013-03-18 17:22:00,36.0,34.0,-100.00,North,352,16.0,16.0,93,4.53,,,-99.99,,2013-03-18 21:22:00,
2013-03-18 17:33:00,34.0,32.0,-100.00,NNE,24,11.0,16.0,93,0.00,,,-99.99,,2013-03-18 21:33:00,
2013-03-18 17:43:00,34.0,32.0,-100.00,NNE,15,11.0,16.0,91,0.00,,,-99.99,,2013-03-18 21:43:00,
2013-03-18 17:52:00,36.0,34.0,-100.00,North,9,11.0,16.0,93,0.00,,,-99.99,,2013-03-18 21:52:00,
2013-03-18 18:03:00,36.0,34.0,-100.00,North,357,13.0,16.0,94,4.53,,,-99.99,,2013-03-18 22:03:00,
2013-03-18 18:13:00,36.0,34.0,-100.00,NNE,28,14.0,16.0,93,1.14,,,-99.99,,2013-03-18 22:13:00,
2013-03-18 18:23:00,35.0,32.0,-100.00,North,358,11.0,16.0,94,0.00,,,-99.99,,2013-03-18 22:23:00,
2013-03-18 18:33:00,34.0,32.0,-100.00,NNW,344,11.0,16.0,93,0.00,,,-99.99,,2013-03-18 22:33:00,
2013-03-18 18:42:00,35.0,32.0,-100.00,North,358,12.0,16.0,93,0.00,,,-99.99,,2013-03-18 22:42:00,
2013-03-18 18:52:00,34.0,32.0,-100.00,NNE,18,14.0,16.0,93,0.00,,,-99.99,,2013-03-18 22:52:00,
2013-03-18 19:03:00,34.0,32.0,-100.00,North,350,13.0,16.0,93,1.14,,,-99.99,,2013-03-18 23:03:00,
2013-03-18 19:13:00,36.0,32.0,-100.00,North,358,11.0,16.0,93,0.00,,,-99.99,,2013-03-18 23:13:00,
2013-03-18 19:23:00,35.0,32.0,-100.00,NNW,340,12.0,16.0,93,0.00,,,-99.99,,2013-03-18 23:23:00,
2013-03-18 19:33:00,36.0,32.0,-100.00,North,8,12.0,16.0,93,4.53,,,-99.99,,2013-03-18 23:33:00,
2013-03-18 19:42:00,35.0,32.0,-100.00,North,2,17.0,22.0,93,0.00,,,-99.99,,2013-03-18 23:42:00,
2013-03-18 19:52:00,35.0,32.0,-100.00,North,9,14.0,22.0,93,0.00,,,-99.99,,2013-03-18 23:52:00,
2013-03-18 20:03:00,35.0,32.0,-100.00,NNW,348,11.0,22.0,93,0.00,,,-99.99,,2013-03-19 00:03:00,
2013-03-18 20:12:00,35.0,32.0,-100.00,North,360,13.0,22.0,93,0.00,,,-99.99,,2013-03-19 00:12:00,
2013-03-18 20:23:00,35.0,32.0,-100.00,NNW,341,11.0,22.0,93,0.00,,,-99.99,,2013-03-19 00:23:00,
2013-03-18 20:32:00,35.0,32.0,-100.00,NNE,18,11.0,22.0,94,4.53,,,-99.99,,2013-03-19 00:32:00,
2013-03-18 20:42:00,36.0,34.0,-100.00,North,2,12.0,22.0,94,0.00,,,-99.99,,2013-03-19 00:42:00,
2013-03-18 20:52:00,35.0,32.0,-100.00,North,357,14.0,22.0,94,0.00,,,-99.99,,2013-03-19 00:52:00,
2013-03-18 21:02:00,35.0,32.0,-100.00,NNW,347,14.0,22.0,94,0.00,,,-99.99,,2013-03-19 01:02:00,
2013-03-18 21:12:00,36.0,34.0,-100.00,NNE,32,11.0,22.0,94,0.00,,,-99.99,,2013-03-19 01:12:00,
2013-03-18 21:23:00,36.0,34.0,-100.00,NNE,21,11.0,22.0,94,0.00,,,-99.99,,2013-03-19 01:23:00,
2013-03-18 21:33:00,36.0,34.0,-100.00,NNE,28,7.0,22.0,94,0.00,,,-99.99,,2013-03-19 01:33:00,
2013-03-18 21:43:00,35.0,32.0,-100.00,North,11,11.0,22.0,94,0.00,,,-99.99,,2013-03-19 01:43:00,
2013-03-18 21:52:00,36.0,34.0,-100.00,North,358,11.0,22.0,94,0.00,,,-99.99,,2013-03-19 01:52:00,
2013-03-18 22:03:00,35.0,32.0,-100.00,North,0,9.0,22.0,94,0.00,,,-99.99,,2013-03-19 02:03:00,
2013-03-18 22:13:00,36.0,34.0,-100.00,NNE,22,8.0,22.0,94,0.00,,,-99.99,,2013-03-19 02:13:00,
2013-03-18 22:23:00,37.0,34.0,-100.00,North,1,8.0,22.0,94,0.00,,,-99.99,,2013-03-19 02:23:00,
2013-03-18 22:33:00,36.0,34.0,-100.00,NNE,21,7.0,22.0,95,0.00,,,-99.99,,2013-03-19 02:33:00,
2013-03-18 22:42:00,36.0,34.0,-100.00,North,8,11.0,22.0,94,0.00,,,-99.99,,2013-03-19 02:42:00,
2013-03-18 22:52:00,36.0,34.0,-100.00,NE,40,9.0,22.0,95,0.00,,,-99.99,,2013-03-19 02:52:00,
2013-03-18 23:02:00,35.0,32.0,-100.00,NE,38,7.0,22.0,94,0.00,,,-99.99,,2013-03-19 03:02:00,
2013-03-18 23:12:00,35.0,32.0,-100.00,North,2,7.0,22.0,93,0.00,,,-99.99,,2013-03-19 03:12:00,
2013-03-18 23:22:00,36.0,34.0,-100.00,North,354,8.0,22.0,94,0.00,,,-99.99,,2013-03-19 03:22:00,
2013-03-18 23:33:00,36.0,34.0,-100.00,NE,46,6.0,22.0,94,4.53,,,-99.99,,2013-03-19 03:33:00,
2013-03-18 23:43:00,35.0,34.0,-100.00,NE,38,5.0,22.0,97,0.00,,,-99.99,,2013-03-19 03:43:00,
2013-03-18 23:53:00,36.0,34.0,-100.00,NE,45,6.0,22.0,97,0.00,,,-99.99,,2013-03-19 03:53:00,